Location: Newark
(63.1158°N, 8.1461°E)
Time: 00:02:31
(UTC+00:00)

Envisat - Pass Details

Date: 12 December 2019
Orbit: 764 x 766 km, 98.1° (Epoch: 19 January)

Event Time Altitude Azimuth Distance (km) Brightness Sun altitude
Rises 06:39:26 0° 18° (NNE) 3,251 6.2 -12.1°
Reaches altitude 10° 06:41:45 10° 20° (NNE) 2,320 5.4 -11.9°
Maximum altitude 06:46:52 75° 106° (ESE) 802 3.3 -11.4°
Drops below altitude 10° 06:51:58 10° 192° (SSW) 2,304 5.7 -10.9°
Sets 06:54:16 0° 195° (SSW) 3,227 6.5 -10.6°
